[[{"header":{"parameterUnit":"m.s-1","parameterCategory":1,"la1":30.2991,"la2":30.254,"lo1":-89.0895,"lo2":-89.0444,"dy":0.0017,"dx":0.0017,"nx":28,"ny":28,"refTime":"2025-08-28T21:00:00:Z","depth":0,"parameterNumber":2,"parameterNumberName":"U-component_of_WINDS"},"data":[0,0,0,0,0,0,0,0,0,0,0,0,0,0,0,0,0,0,0,0,0,0,0,0,0,0,0,0,0,0,0,0,0,0,0,0,0,0,0,0,0,0,0,0,0,0,0,0,0,0,0,0,0,0,0,0,0,0,2.704,2.7037,0,2.6758,2.6754,2.6751,2.6512,2.651,2.6507,2.6505,2.6202,2.6197,2.6191,0,0,0,0,0,0,0,0,0,0,0,0,0,2.7362,2.7357,2.7041,2.7037,2.7034,2.6758,2.6754,2.675,2.6513,2.6509,2.6506,2.6503,2.6204,2.6197,2.6191,0,0,0,0,0,0,0,0,0,0,0,0,0,2.7165,2.7356,2.7041,2.6882,2.6865,2.6759,2.6754,2.6749,2.6513,2.6509,2.6506,2.6502,2.6206,2.6198,2.619,2.6215,0,0,2.6164,2.616,0,0,0,0,0,0,0,0,2.7176,2.7153,2.6909,2.6893,2.6873,2.6666,2.6756,2.657,2.6514,2.6646,2.6504,2.65,2.6359,2.6338,2.6293,2.6201,2.6188,2.6163,2.6158,2.6154,2.6152,0,0,0,0,0,0,0,2.719,2.7164,2.6928,2.6906,2.6884,2.682,2.6788,2.672,2.6527,2.6635,2.6617,2.6587,2.6348,2.6302,2.6284,2.6183,2.6163,2.6156,2.6151,2.6147,2.6092,2.6095,0,0,0,0,0,0,2.723,2.7177,2.6937,2.692,2.7019,2.6818,2.6782,2.6737,2.6528,2.6492,2.6591,2.6577,2.6318,2.6294,2.6272,2.6283,2.6154,2.6146,2.6142,2.6088,2.6092,2.6096,0,0,0,0,0,0,2.7238,2.7211,2.6948,2.7043,2.7005,2.6817,2.6768,2.6733,2.6686,2.6495,2.6458,2.6579,2.6314,2.6284,2.623,2.627,2.6143,2.6135,2.6084,2.6089,2.6094,2.631,0,0,0,0,0,0,2.7248,2.7215,2.7226,2.7046,2.7001,2.6916,2.677,2.673,2.6673,2.6653,2.6474,2.644,2.6309,2.6245,2.6222,2.6256,2.6128,2.6079,2.6086,2.6093,2.6298,2.6322,2.6342,0,0,0,0,0,2.7261,2.7296,2.7228,2.72,2.7011,2.6919,2.6893,2.6744,2.6678,2.6684,2.6561,2.6446,2.6271,2.6241,2.6214,2.6246,2.6076,2.6084,2.6092,2.6288,2.6317,2.6341,0,0,0,0,0,0,2.7481,2.7269,2.7191,2.717,2.7065,2.6879,2.6882,2.678,2.6688,2.6672,2.6488,2.645,2.6415,2.6325,2.6296,2.6256,2.6158,2.6161,2.6316,2.6342,2.6363,2.6383,2.6121,0,0,0,0,0,2.7529,2.7476,2.7292,2.729,2.7242,2.7073,2.7027,2.6922,2.6804,2.6756,2.6629,2.6515,2.6433,2.6383,2.6298,2.6286,2.6239,2.6293,2.6316,2.6335,2.6337,2.6319,2.6339,2.6123,2.6123,2.6123,0,0,2.7623,2.7501,2.7478,2.7332,2.7238,2.7182,2.7036,2.6984,2.694,2.6747,2.6688,2.6592,2.6451,2.6418,2.6396,2.6341,2.6388,2.6345,2.6362,2.6353,2.6329,2.635,2.6368,2.6129,2.6128,2.6127,0,0,2.7766,2.7672,2.7658,2.7568,2.7429,2.7316,2.7314,2.7144,2.7073,2.7013,2.6866,2.6808,2.6674,2.6578,2.6513,2.6622,2.651,2.6599,2.6711,2.6696,2.6713,2.6727,2.676,2.6775,2.6604,2.6604,2.6605,0,2.79,2.7815,2.7663,2.762,2.7558,2.7387,2.7368,2.7287,2.7126,2.7085,2.7028,2.6853,2.6747,2.6686,2.6714,2.6668,2.6654,2.6616,2.6724,2.6736,2.6747,2.6776,2.679,2.6616,2.6614,2.6613,2.6612,0,2.7984,2.7927,2.7933,2.7786,2.7724,2.7695,2.7534,2.7489,2.7391,2.7283,2.7221,2.7089,2.6972,2.6951,2.6853,2.6875,2.6845,2.6759,2.6655,2.6781,2.6806,2.6816,2.6632,2.6628,2.6625,2.6622,0,0,2.8253,2.8025,2.8029,2.7959,2.7794,2.7745,2.7706,2.7596,2.7559,2.7455,2.7413,2.7304,2.7222,2.7148,2.7037,2.7025,2.7113,2.6938,2.6932,2.6971,2.7124,2.7186,2.7202,2.7041,2.7043,2.7044,2.7134,0,2.8365,2.8289,2.8152,2.8117,2.806,2.7897,2.7862,2.7755,2.7654,2.7587,2.7472,2.7396,2.7297,2.7251,2.7232,2.7108,2.7141,2.71,2.6994,2.6992,2.7029,2.7216,2.7281,2.7372,2.7143,2.7144,2.7146,0,2.8484,2.8393,2.8355,2.8193,2.8163,2.8135,2.8022,2.7963,2.7836,2.7762,2.7682,2.7562,2.7506,2.7417,2.7334,2.731,2.7259,2.7191,2.7191,2.717,2.7073,2.7195,2.7398,2.741,2.716,2.7159,2.7158,0,2.8678,2.8546,2.8505,2.8451,2.8262,2.8245,2.8165,2.8035,2.7978,2.7878,2.7837,2.7732,2.7673,2.7592,2.7444,2.7394,2.7377,2.7275,2.7308,2.7312,2.7307,2.7308,2.75,2.7285,2.7285,2.7285,2.7285,0,2.8814,2.8795,2.8589,2.8563,2.8536,2.8378,2.8354,2.8258,2.8145,2.8093,2.7946,2.79,2.7712,2.7643,2.7528,2.7474,2.7449,2.7384,2.7352,2.7394,2.7402,2.7353,2.7341,2.7288,2.7287,2.7287,2.7286,0,2.9023,2.8885,2.8829,2.8657,2.8613,2.86,2.8449,2.8416,2.8308,2.8245,2.822,2.8048,2.7959,2.7807,2.7672,2.7594,2.7561,2.7511,2.7605,2.7585,2.7624,2.7621,2.7786,2.7797,2.7584,2.7586,2.7588,0,2.9115,2.9097,2.8925,2.8883,2.8809,2.8743,2.8684,2.8528,2.8471,2.8327,2.8309,2.821,2.8121,2.7986,2.7845,2.774,2.7683,2.7749,2.7666,2.7707,2.7677,2.7678,2.7672,2.7766,2.7769,2.7772,2.7774,0,2.9292,2.9226,2.9149,2.905,2.8985,2.8898,2.8802,2.8775,2.8595,2.8539,2.8449,2.8382,2.8246,2.8147,2.8023,2.7934,2.7822,2.7802,2.7803,2.7842,2.7895,2.7861,2.765,2.7797,2.7795,2.7793,2.7792,2.7791,2.944,2.9416,2.9292,2.9211,2.9124,2.9039,2.8998,2.8887,2.8811,2.8691,2.8603,2.8518,2.8388,2.8211,2.8129,2.8057,2.8006,2.8009,2.8008,2.801,2.8024,2.7913,2.8034,2.8033,2.8032,2.8031,2.8031,0,2.9604,2.9518,2.9446,2.9319,2.9255,2.9164,2.9053,2.9003,2.8932,2.8824,2.8742,2.8636,2.854,2.8394,2.8284,2.8254,2.8199,2.823,2.8227,2.8207,2.8078,2.8086,2.8275,2.8275,2.8275,2.8275,2.8275,2.8275,2.9682,2.9635,2.9555,2.9462,2.9372,2.9292,2.9236,2.9155,2.9068,2.8958,2.888,2.8787,2.8662,2.8543,2.8448,2.8407,2.8371,2.8416,2.8359,2.8239,2.8217,2.8195,2.8201,2.8412,2.8412,2.8492,2.8493,2.8494]},{"header":{"parameterUnit":"m.s-1","parameterCategory":1,"la1":30.2991,"la2":30.254,"lo1":-89.0895,"lo2":-89.0444,"dy":0.0017,"dx":0.0017,"nx":28,"ny":28,"refTime":"2025-08-28T21:00:00:Z","depth":0,"parameterNumber":3,"parameterNumberName":"V-component_of_WINDS"},"data":[0,0,0,0,0,0,0,0,0,0,0,0,0,0,0,0,0,0,0,0,0,0,0,0,0,0,0,0,0,0,0,0,0,0,0,0,0,0,0,0,0,0,0,0,0,0,0,0,0,0,0,0,0,0,0,0,0,0,5.229,5.2292,0,5.245,5.2452,5.2454,5.2414,5.2411,5.2408,5.2405,5.2561,5.2567,5.2574,0,0,0,0,0,0,0,0,0,0,0,0,0,5.1941,5.1948,5.229,5.2292,5.2294,5.245,5.2452,5.2454,5.2414,5.2411,5.2407,5.2403,5.2558,5.2567,5.2575,0,0,0,0,0,0,0,0,0,0,0,0,0,5.2096,5.195,5.229,5.2293,5.2295,5.245,5.2452,5.2455,5.2415,5.2411,5.2406,5.2402,5.2556,5.2566,5.2576,5.2735,0,0,5.2609,5.2613,0,0,0,0,0,0,0,0,5.2087,5.2109,5.2291,5.2293,5.2296,5.2408,5.2386,5.2548,5.2416,5.2369,5.2405,5.2399,5.2513,5.2527,5.2567,5.2742,5.2749,5.2609,5.2616,5.262,5.2623,0,0,0,0,0,0,0,5.2077,5.2102,5.2353,5.2293,5.2297,5.2284,5.2301,5.2417,5.2465,5.2373,5.2371,5.2391,5.2513,5.2557,5.257,5.2751,5.2609,5.2619,5.2625,5.2629,5.3059,5.3064,0,0,0,0,0,0,5.2065,5.2093,5.2348,5.2358,5.2178,5.2294,5.2313,5.2376,5.2464,5.2473,5.2394,5.2388,5.2541,5.2558,5.2575,5.2763,5.262,5.263,5.2636,5.3054,5.306,5.3066,0,0,0,0,0,0,5.2058,5.2088,5.2342,5.2225,5.2256,5.2305,5.2376,5.2382,5.2425,5.248,5.2487,5.243,5.2538,5.256,5.2695,5.2768,5.2635,5.2645,5.3048,5.3056,5.3063,5.3142,0,0,0,0,0,0,5.2048,5.2086,5.2149,5.2227,5.2263,5.2462,5.2381,5.2388,5.2444,5.2438,5.2516,5.2524,5.2536,5.2679,5.2705,5.278,5.2653,5.3042,5.3052,5.3061,5.3133,5.3152,5.3167,0,0,0,0,0,5.2036,5.2164,5.2152,5.2183,5.2343,5.2466,5.2486,5.25,5.2451,5.2512,5.2547,5.2521,5.2757,5.2693,5.2722,5.2802,5.3037,5.3049,5.306,5.3126,5.3148,5.3167,0,0,0,0,0,0,5.2091,5.2174,5.2162,5.232,5.2387,5.2459,5.2538,5.2524,5.2603,5.2593,5.2604,5.2622,5.2759,5.2794,5.2722,5.2957,5.2889,5.2907,5.2929,5.2951,5.2968,5.2955,5.2662,0,0,0,0,0,5.2122,5.2218,5.2284,5.2417,5.2451,5.2489,5.2543,5.2548,5.2616,5.2643,5.2688,5.2752,5.284,5.2898,5.2982,5.3139,5.3153,5.3207,5.3224,5.3238,5.3252,5.3334,5.3357,5.3104,5.3103,5.3103,0,0,5.2186,5.2243,5.2303,5.243,5.2482,5.2577,5.2513,5.2617,5.2687,5.2658,5.2787,5.2823,5.2895,5.304,5.3106,5.3074,5.3326,5.3253,5.3263,5.327,5.3348,5.3372,5.3393,5.3111,5.311,5.3109,0,0,5.2351,5.2406,5.2521,5.2575,5.2655,5.2679,5.2706,5.2782,5.2804,5.2935,5.2914,5.2996,5.3149,5.32,5.3246,5.3429,5.3407,5.3456,5.3544,5.3623,5.3643,5.3661,5.3722,5.3745,5.3471,5.3471,5.3471,0,5.242,5.2566,5.2581,5.2688,5.2742,5.2723,5.2837,5.2887,5.299,5.3026,5.2989,5.3178,5.3226,5.3381,5.3426,5.3465,5.3494,5.3446,5.364,5.3658,5.3674,5.3733,5.3756,5.3476,5.3476,5.3475,5.3475,0,5.2644,5.2746,5.2828,5.293,5.2994,5.3104,5.3132,5.3195,5.3194,5.322,5.3351,5.3408,5.3502,5.354,5.354,5.3694,5.3671,5.3637,5.3568,5.3703,5.3758,5.3781,5.3484,5.3482,5.348,5.3479,0,0,5.2848,5.2956,5.2986,5.303,5.3117,5.3193,5.3301,5.3395,5.3446,5.3517,5.3605,5.3734,5.3702,5.3755,5.376,5.383,5.3966,5.3787,5.3788,5.3815,5.4135,5.4158,5.4184,5.3953,5.3958,5.3961,5.4128,0,5.3018,5.3209,5.3225,5.3396,5.3487,5.3469,5.3562,5.3623,5.3651,5.373,5.3759,5.3849,5.3803,5.3834,5.3903,5.3935,5.403,5.3924,5.403,5.4034,5.401,5.4214,5.4239,5.4394,5.415,5.4154,5.4157,0,5.3242,5.3321,5.3501,5.3572,5.3611,5.3694,5.378,5.3857,5.3925,5.394,5.3998,5.3993,5.4099,5.4029,5.4173,5.41,5.4145,5.4167,5.4173,5.4181,5.4101,5.4223,5.4444,5.4466,5.4191,5.4189,5.4186,0,5.3367,5.3519,5.3645,5.3684,5.3772,5.383,5.3868,5.3932,5.3986,5.406,5.4095,5.418,5.4226,5.429,5.4307,5.4255,5.4449,5.4381,5.4461,5.4461,5.4501,5.4497,5.4727,5.4535,5.4535,5.4534,5.4534,0,5.3553,5.3663,5.3703,5.378,5.3901,5.3918,5.4036,5.4071,5.4127,5.4208,5.4198,5.4274,5.4293,5.4371,5.4385,5.45,5.4521,5.4534,5.4535,5.4533,5.4531,5.456,5.4548,5.4541,5.4539,5.4538,5.4537,0,5.3713,5.3745,5.3881,5.3952,5.3973,5.4058,5.4118,5.419,5.4217,5.4319,5.4344,5.4384,5.4476,5.45,5.4609,5.4618,5.4753,5.4746,5.473,5.4729,5.4806,5.4797,5.506,5.5094,5.4883,5.4885,5.4887,0,5.3828,5.3912,5.3993,5.4048,5.4089,5.4178,5.4233,5.4252,5.431,5.4392,5.4454,5.4545,5.4618,5.4764,5.4801,5.4884,5.4877,5.4963,5.4889,5.4883,5.4873,5.4867,5.4874,5.4976,5.4978,5.498,5.4982,0,5.4028,5.4039,5.4121,5.4209,5.4276,5.4345,5.4411,5.4456,5.4483,5.4548,5.4642,5.4699,5.4811,5.49,5.4983,5.5018,5.5003,5.5005,5.5027,5.5024,5.501,5.5015,5.4765,5.4998,5.4997,5.4996,5.4995,5.4994,5.4167,5.4239,5.4307,5.4398,5.445,5.4511,5.4583,5.4618,5.4698,5.4792,5.4797,5.4899,5.4961,5.5071,5.5112,5.5189,5.5163,5.5196,5.5203,5.5211,5.5216,5.5001,5.5205,5.5204,5.5204,5.5203,5.5203,0,5.4362,5.4405,5.4489,5.4582,5.4653,5.4636,5.4707,5.4766,5.4857,5.4918,5.499,5.5097,5.5183,5.5226,5.5311,5.5364,5.5359,5.5385,5.5379,5.5387,5.5236,5.5207,5.5387,5.5387,5.5387,5.5387,5.5387,5.5387,5.4473,5.4594,5.4613,5.4758,5.4799,5.4901,5.4942,5.4998,5.5046,5.5166,5.5238,5.5267,5.532,5.5407,5.5484,5.5494,5.5524,5.5553,5.5559,5.5417,5.5398,5.538,5.5353,5.556,5.5561,5.5703,5.5705,5.5706]}]]